Regional Weather Roundup
Issued by NWS Huntsville, AL

Home | Current Version | Previous Version | Text Only | Print | Product List | Glossary On
Versions: 1 2 3 4 5 6 7 8 9 10 11 12 13 14 15 16 17 18 19 20 21 22 23 24 25 26 27 28 29 30 31 32 33 34 35 36 37 38 39 40 41 42 43 44 45 46 47 48 49 50
000
ASUS44 KHUN 282310
RWRHUN

WEATHER ROUNDUP FOR THE TENNESSEE VALLEY
NATIONAL WEATHER SERVICE HUNTSVILLE AL
600 PM CDT SUN MAY 28 2017

ALZ001>004-290000-
NORTHWEST ALABAMA

CITY           SKY/WX    TMP DP  RH WIND       PRES   REMARKS
COURTLAND HCN    N/A     81 N/A N/A W15         N/A
RUSSELLVILLE     N/A     79 N/A N/A MISG        N/A
SHOALS AIRPORT CLOUDY    82  63  52 W9        29.94S
SHOALS TVA RES   N/A     79 N/A N/A MISG        N/A
$$

ALZ005>007-016-290000-
NORTH CENTRAL ALABAMA

CITY           SKY/WX    TMP DP  RH WIND       PRES   REMARKS
CULLMAN AG STN   N/A     79 N/A N/A W8          N/A
DECATUR AP     MOSUNNY   81  66  60 W13       29.93R
HUNTSVILLE AP  PTSUNNY   82  65  56 W10       29.93R
MERIDIANVILLE  MOSUNNY   81  61  50 W3        29.93S
REDSTONE ARSN  PTSUNNY   80  65  59 NW13      29.92R
VINEMONT AP    FAIR      80  65  60 W6        29.97R
$$

ALZ008>010-290000-
NORTHEAST ALABAMA

CITY           SKY/WX    TMP DP  RH WIND       PRES   REMARKS
ALBERTVILLE    MOSUNNY   79  70  73 W10       29.94S
FORT PAYNE     MOSUNNY   79  59  50 W5        29.93S
SCOTTSBORO AP  MOSUNNY   81  64  57 NW3       29.93S
SCOTTSBORO HCN   N/A     81 N/A N/A MISG        N/A
VALLEY HEAD      N/A     77 N/A N/A MISG        N/A
$$

TNZ076-096-097-290000-
SOUTHEASTERN MIDDLE TENNESSEE

CITY           SKY/WX    TMP DP  RH WIND       PRES   REMARKS
TULLAHOMA      PTSUNNY   79  63  57 W5        29.95S
WINCHESTER     MOSUNNY   79  64  61 W5          N/A
$$

...SURROUNDING SITES...

CITY           SKY/WX    TMP DP  RH WIND       PRES   REMARKS
ATLANTA        PTSUNNY   82  66  58 W7        29.93R
ANNISTON       CLOUDY    79  66  64 SW8       29.93S
BIRMINGHAM     CLOUDY    82  64  54 W13       29.96R
CHATTANOOGA    PTSUNNY   82  62  50 NW9       29.92R
CORINTH        CLOUDY    77  64  65 W5        29.93F
DALTON         MOSUNNY   81  68  65 CALM      29.92S
GADSDEN        CLOUDY    82  66  58 W12       29.93R
GOLDEN TRNGL   SUNNY     82  63  51 NW12G18   29.90S
HALEYVILLE     FAIR      79  65  62 W7        29.97S
JACKSON TN     CLOUDY    76  67  73 W6        29.92S
MEMPHIS        CLOUDY    78  68  71 NW7       29.92F
NASHVILLE      PTSUNNY   78  62  57 W8        29.91S
OXFORD MS      PTSUNNY   77  64  65 NW6       29.96F
ROME           SUNNY     83  67  58 SW6       29.91R
SAVANNAH       PTSUNNY   79  64  61 W7        29.92S
SELMER         CLOUDY    75  64  69 W7        29.93S
TUPELO         CLOUDY    80  63  55 W6        29.93F
TUSCALOOSA     MOSUNNY   83  64  52 W8        29.93S
$$

...GULF COAST WEATHER...

CITY           SKY/WX    TMP DP  RH WIND       PRES   REMARKS
GULFPORT       SUNNY     84  75  74 S6        29.96S HX  92
PASCAGOULA     MOSUNNY   84  73  69 SW5       29.98R HX  90
MOBILE         MOSUNNY   83  68  60 S8        29.97F
GULF SHORES    CLEAR     82  71  70 SW6       29.98R
PENSACOLA      CLOUDY    82  69  64 SW8       29.96F
DESTIN         CLOUDY    83  83 100 SW7       29.96F HX  99
PANAMA CITY    CLOUDY    80  76  86 SW12      29.97F
APPALACHICOLA  CLOUDY    82  78  88 W15       29.99F HX  91
$$




USA.gov is the U.S. government's official web portal to all federal, state and local government web resources and services.